YUNHAI 2-2E

导读

YUNHAI 2-2E(云海二号2E)是中国研制的云海二号02组卫星成员,于2024年3月21日,在酒泉卫星发射中心由长征二号丁运载火箭/远征三号上面级送入预定轨道。该卫星主要用于开展大气环境要素探测、空间环境监测,服务防灾减灾与空间科学试验等领域,是中国低轨气象环境监测网络的重要组成部分,将为我国生态环境保护、灾害预警提供数据支撑。

基本信息
目录编号:
59284
目录名称:
YUNHAI 2-2E
国际标识:
2024-052E
轨道中心:
EARTH
卫星名称:
YUNHAI 2-2E
卫星全名:
YUNHAI 2-2E
卫星状态:
在轨 (已飞行845 天)
发射日期:
2024-03-21 UTC
国别 :
中国 (CN)
星等 :
--
轨道信息
数据来源 国际轨道数据 AOE轨道数据
星历时间 2026-07-14T04:38:33+0800
9小时前
查看轨道信息
2026-07-13T04:00:00+0800
1天前
查看轨道信息
半长轴 7176.652km 7176.656km
偏心率 0.0011679 0.0011627
轨道倾角 50.009° 50.008°
近地点辐角 153.314° 149.429°
升交点赤经 209.761° 214.114°
平近点角 206.838° 328.798°
近地点 790.133km 790.174km
远地点 806.897km 806.864km
周期 100.842分钟 100.842分钟
每日圈数 14.279728 14.279718
详细信息
使用方式:
暂无
2D轨道图
3D轨道图
轨道高度分析图
轨道倾角分析图
轨道综合分析图
查看轨道综合分析图